Weather in Karatas

Turkey     36°33′49″N   35°23′00″E
temp.,
°C
wind,
m/s
gust,
m/s
humid.,
%
clouds,
%
prec.,
mm/h
press.,
hPa
HPBL,
m
11 may, tue
tue1100:00+22nnw22550 0.0 100843
03:00+21nne34390 0.0 1008173
06:00+20ne34380 0.0 1009197
09:00+21ene33360 0.0 1010257
12:00+22se33460 0.0 1010183
15:00+23ssw44530 0.0 1009264
18:00+23ssw44630 0.0 1008168
21:00+22ssw34640 0.0 1009116
12 may, wed
wed1200:00+22sse23660 0.0 1009147
03:00+22s44655 0.0 1008300
06:00+22sw22625 0.0 1009276
09:00+22ssw22605 0.0 1010345
12:00+22ssw436262 0.0 1010364
15:00+23ssw55640 0.0 1009382
18:00+23sw45680 0.0 1009316
21:00+22ssw33730 0.0 1010133
13 may, thu
thu1300:00+22s22730 0.0 1010233
03:00+22s11700 0.0 1010234
06:00+21se12710 0.0 1010328
09:00+22sse2172100 0.0 1012418
12:00+22s437417 0.0 1012391
15:00+23ssw44700 0.0 1012414
18:00+23sw44700 0.0 1011399
21:00+22ssw44775 0.0 1012285
14 may, fri
fri1400:00+22sw33755 0.0 1013351
03:00+21s11730 0.0 1012310
06:00+21se11740 0.0 1013344
09:00+21s22750 0.0 1014405
12:00+22ssw44740 0.0 1014524
15:00+23sw45650 0.0 1014619
18:00+23ssw45660 0.0 1013555
21:00+22ssw45740 0.0 1014469
15 may, sat
sat1500:00+22wsw33690 0.0 1014494
03:00+21wsw117098 0.0 1013405
06:00+21nw11725 0.0 1013383
09:00+21wsw22720 0.0 1013484
12:00+22ssw44720 0.0 1013552
15:00+22ssw66730 0.0 1012614
18:00+22ssw66750 0.0 1011621
21:00+22s55760 0.0 1011473